カタログに戻る

STARLINK-3634

運用中通信VLEO
NORAD 51798·PAYLOAD·🇺🇸 United States

打ち上げ Feb 25, 2022 から Vandenberg Space Force Base

Loading…

次のパス (今後24時間)

TLE

最新Source: CelesTrak SupGP

元期: Sep 15, 2026, 02:09 UTC

1 51798C 22017AG  26258.09006944 -.00015990  00000+0 -47251-3 0  2582
2 51798  53.1584 203.3546 0001398  88.3694 158.0522 15.34393415    12

AllMySatでSTARLINK-3634をリアルタイム追跡

Download on the App Store